GW0378 Weather Reports


time (UTC)temp
C
wind
direction
speed
KPH
gust
KPH
rain 1hr
cm
rain 24hr
cm
rain mn
cm
humidity
%
barometer
mb
20260906183209 13 90 0.0 1.6 0.13 1.45 1.45 90 1017.7
20260906182709 13 81 0.0 0.0 0.05 1.45 1.45 89 1017.5
20260906182205 13 78 0.0 3.2 0.00 1.45 1.45 89 1017.5
20260906181659 13 101 4.8 8.0 0.00 1.45 1.45 88 1017.4
20260906181155 13 334 0.0 3.2 0.00 1.45 1.45 88 1017.1
20260906180650 13 49 0.0 3.2 0.00 1.45 1.45 87 1017.2
20260906180145 13 90 1.6 3.2 0.00 1.45 1.45 87 1017.0
20260906175643 13 215 1.6 6.4 0.00 1.45 1.45 88 1017.0
20260906175138 13 196 3.2 4.8 0.00 1.45 1.45 90 1017.1
20260906174636 13 254 1.6 11.3 0.00 1.45 1.45 90 1017.2
20260906174132 13 260 6.4 14.5 0.00 1.45 1.45 89 1017.2
20260906173627 13 158 4.8 6.4 0.00 1.45 1.45 85 1017.0
20260906173122 13 250 6.4 14.5 0.00 1.45 1.45 86 1016.7
20260906172621 15 346 0.0 19.3 0.00 1.45 1.45 80 1016.4
20260906172117 14 139 3.2 9.7 0.00 1.45 1.45 82 1016.1
20260906171616 13 90 0.0 8.0 0.00 1.45 1.45 85 1016.5
20260906171113 13 86 3.2 12.9 0.00 1.45 1.45 87 1016.2
20260906170609 14 77 3.2 4.8 0.00 1.45 1.45 86 1016.7
20260906170108 14 337 0.0 1.6 0.00 1.45 1.45 83 1017.0
20260906165604 14 286 1.6 3.2 0.00 1.45 1.45 81 1017.0
20260906165059 15 294 3.2 4.8 0.00 1.45 1.45 80 1017.1
20260906164558 14 160 0.0 1.6 0.00 1.45 1.45 80 1017.0
20260906164054 14 160 0.0 1.6 0.00 1.45 1.45 80 1017.2
20260906163549 14 237 0.0 4.8 0.00 1.45 1.45 81 1016.8
20260906163045 14 141 3.2 11.3 0.00 1.45 1.45 80 1016.9
20260906162542 15 90 6.4 9.7 0.00 1.45 1.45 80 1016.8
20260906162037 15 173 0.0 1.6 0.00 1.45 1.45 79 1017.1
20260906161532 15 157 3.2 9.7 0.00 1.45 1.45 79 1016.9
20260906161031 14 159 6.4 9.7 0.00 1.45 1.45 81 1016.9
20260906160531 13 184 3.2 4.8 0.00 1.45 1.45 86 1016.9
20260906160029 13 262 4.8 4.8 0.00 1.45 1.45 86 1016.8
20260906155526 13 285 0.0 4.8 0.00 1.45 1.45 88 1016.7
20260906155023 13 90 0.0 1.6 0.00 1.45 1.45 89 1016.5
20260906154518 13 249 0.0 3.2 0.00 1.45 1.45 88 1016.7
20260906154016 13 320 4.8 6.4 0.00 1.45 1.45 86 1016.6
20260906153516 13 148 3.2 6.4 0.00 1.45 1.45 82 1016.5
20260906153011 13 80 3.2 6.4 0.00 1.45 1.45 86 1016.5
20260906152505 13 264 1.6 4.8 0.00 1.45 1.45 87 1016.4
20260906152004 13 285 1.6 3.2 0.00 1.45 1.45 87 1016.4
20260906151500 13 29 1.6 3.2 0.00 1.45 1.45 86 1016.5
20260906150955 13 334 0.0 3.2 0.00 1.45 1.45 87 1016.5
20260906150450 13 26 1.6 3.2 0.00 1.45 1.45 86 1016.5
20260906145950 13 320 0.0 3.2 0.00 1.45 1.45 85 1016.5
20260906145449 13 9 0.0 6.4 0.00 1.45 1.45 85 1016.6
20260906144944 13 65 3.2 8.0 0.00 1.45 1.45 82 1016.8
20260906144439 14 105 3.2 11.3 0.00 1.45 1.45 80 1016.8
20260906143934 13 119 0.0 11.3 0.00 1.45 1.45 81 1016.9
20260906143430 13 124 8.0 9.7 0.00 1.45 1.45 82 1016.7
20260906142925 13 147 4.8 6.4 0.00 1.45 1.45 83 1016.9
20260906142424 13 253 3.2 3.2 0.00 1.45 1.45 84 1016.8
20260906141920 13 210 3.2 6.4 0.00 1.45 1.45 83 1016.8
20260906141414 13 70 0.0 3.2 0.00 1.45 1.45 83 1017.0
20260906140908 13 151 0.0 9.7 0.00 1.45 1.45 84 1016.7
20260906140403 13 132 3.2 9.7 0.00 1.45 1.45 84 1016.9
20260906135901 13 112 9.7 17.7 0.00 1.45 1.45 84 1016.2
20260906135400 13 109 9.7 11.3 0.00 1.45 1.45 83 1016.4
20260906134856 13 123 8.0 12.9 0.00 1.45 1.45 83 1016.4
20260906134351 13 127 9.7 17.7 0.00 1.45 1.45 83 1016.0
20260906133846 13 106 11.3 17.7 0.00 1.45 1.45 81 1015.9
20260906133342 13 100 9.7 22.5 0.00 1.45 1.45 81 1016.1
20260906132837 13 132 12.9 14.5 0.00 1.45 1.45 82 1016.1
20260906132332 13 116 14.5 24.1 0.00 1.45 1.45 81 1015.8
20260906131828 13 137 6.4 19.3 0.00 1.45 1.45 81 1016.1
20260906131323 13 99 14.5 19.3 0.00 1.45 1.45 81 1016.2
20260906130819 12 129 8.0 16.1 0.00 1.45 1.45 87 1016.1
20260906130313 12 97 11.3 16.1 0.00 1.45 1.45 87 1016.0
20260906125812 13 116 9.7 17.7 0.00 1.45 1.45 85 1016.4
20260906125309 13 143 8.0 20.9 0.00 1.45 1.45 84 1016.5
20260906124804 13 120 9.7 22.5 0.00 1.45 1.45 83 1016.4
20260906124300 13 71 11.3 17.7 0.00 1.45 1.45 82 1017.0
20260906123759 13 108 9.7 24.1 0.00 1.45 1.45 84 1016.8
20260906123254 13 127 12.9 17.7 0.00 1.45 1.45 84 1016.6
20260906122754 13 119 8.0 17.7 0.00 1.45 1.45 85 1016.9
20260906122249 13 127 9.7 20.9 0.00 1.45 1.45 84 1016.8
20260906121746 12 114 8.0 14.5 0.00 1.45 1.45 87 1016.7
20260906121242 12 144 4.8 20.9 0.00 1.45 1.45 88 1016.7
20260906120737 12 114 8.0 12.9 0.00 1.45 1.45 89 1016.8
20260906120234 12 125 4.8 4.8 0.00 1.45 1.45 89 1017.2
20260906115729 12 90 4.8 6.4 0.00 1.45 1.45 88 1016.7
20260906115224 13 103 0.0 4.8 0.00 1.45 1.45 87 1017.1
20260906114723 12 90 1.6 3.2 0.00 1.45 1.45 88 1017.0
20260906114218 12 154 0.0 0.0 0.00 1.45 1.45 87 1017.2
20260906113714 13 188 0.0 3.2 0.00 1.45 1.45 87 1017.4
20260906113213 13 201 0.0 4.8 0.00 1.45 1.45 84 1017.0
20260906112713 13 236 3.2 6.4 0.00 1.45 1.45 84 1017.0
20260906112210 13 303 3.2 4.8 0.00 1.45 1.45 87 1016.9
20260906111709 13 279 20.9 20.9 0.00 1.45 1.45 86 1017.5
20260906111203 13 243 4.8 11.3 0.00 1.45 1.45 87 1016.9
20260906110659 12 32 9.7 11.3 0.00 1.45 1.45 89 1015.7
20260906110154 12 30 3.2 14.5 0.00 1.45 1.45 88 1017.4
20260906105648 12 99 6.4 8.0 0.00 1.45 1.45 90 1017.7
20260906105144 13 13 4.8 4.8 0.00 1.45 1.45 89 1017.8
20260906104643 13 252 4.8 16.1 0.00 1.45 1.45 88 1017.7
20260906104137 14 250 9.7 12.9 0.00 1.45 1.45 81 1017.5
20260906103635 13 175 3.2 9.7 0.00 1.45 1.45 81 1016.8
20260906103131 12 70 6.4 19.3 0.00 1.45 1.45 91 1016.2
20260906102625 12 102 9.7 24.1 0.00 1.45 1.45 93 1016.9
20260906102120 12 90 3.2 4.8 0.00 1.45 1.45 92 1018.3
20260906101614 12 240 6.4 17.7 0.00 1.45 1.45 92 1018.7
20260906101109 12 229 9.7 12.9 0.00 1.45 1.45 93 1018.3
20260906100605 13 210 8.0 11.3 0.00 1.45 1.45 90 1017.5
20260906100104 13 270 1.6 20.9 0.00 1.45 1.45 87 1017.2
20260906095604 12 275 3.2 9.7 0.00 1.45 1.45 90 1017.2
20260906095100 12 111 24.1 30.6 0.00 1.45 1.45 89 1016.2
20260906094558 12 128 20.9 48.3 0.00 1.45 1.45 91 1016.2
20260906094054 12 105 22.5 32.2 0.00 1.45 1.45 95 1017.2
20260906093550 12 220 4.8 12.9 0.00 1.45 1.45 95 1019.2
20260906093045 12 237 12.9 16.1 0.18 1.45 1.45 95 1018.7
20260906092541 12 294 3.2 11.3 0.36 1.42 1.42 95 1017.4
20260906092035 12 122 9.7 29.0 0.36 1.42 1.42 95 1017.6
20260906091530 12 159 4.8 19.3 0.23 1.37 1.37 95 1018.0
20260906091027 12 110 8.0 16.1 0.13 1.35 1.35 95 1018.0
20260906090522 12 185 0.0 37.0 0.05 1.32 1.32 95 1018.3
20260906090017 12 119 14.5 35.4 0.18 1.32 1.32 96 1018.2
20260906085516 12 165 3.2 22.5 0.18 1.32 1.32 96 1017.8
20260906085015 12 177 4.8 29.0 0.53 1.30 1.30 96 1017.8
20260906084510 12 145 6.4 22.5 1.14 1.27 1.27 96 1018.1
20260906084009 12 98 8.0 22.5 1.27 1.22 1.22 96 1018.5
20260906083505 12 72 0.0 6.4 1.14 1.09 1.09 96 1019.5
20260906083004 12 90 1.6 3.2 0.79 0.99 0.99 96 1020.0
20260906082459 12 128 8.0 9.7 0.30 0.89 0.89 96 1019.6
20260906081955 12 154 1.6 4.8 0.18 0.86 0.86 95 1019.1
20260906081450 12 100 6.4 6.4 0.30 0.84 0.84 95 1019.1
20260906080946 12 85 0.0 4.8 0.61 0.84 0.84 95 1019.2
20260906080443 12 90 3.2 4.8 0.36 0.79 0.79 94 1019.0
20260906075943 13 186 4.8 6.4 0.00 0.74 0.74 94 1019.0
20260906075437 13 313 17.7 17.7 0.00 0.74 0.74 94 1019.0
20260906074932 12 180 0.0 4.8 0.00 0.74 0.74 95 1018.2
20260906074427 12 180 0.0 1.6 0.00 0.74 0.74 94 1017.7
20260906073926 12 128 4.8 4.8 0.00 0.74 0.74 94 1017.1
20260906073421 12 139 3.2 8.0 0.00 0.74 0.74 94 1017.1
20260906072917 12 115 0.0 6.4 0.00 0.74 0.74 93 1017.4
20260906072412 12 90 6.4 6.4 0.00 0.74 0.74 93 1017.1
20260906071908 12 137 8.0 22.5 0.00 0.74 0.74 93 1016.7
20260906071404 12 139 8.0 25.7 0.00 0.74 0.74 92 1016.9
20260906070859 12 115 11.3 24.1 0.00 0.74 0.74 92 1016.9
20260906070355 12 154 4.8 17.7 0.00 0.74 0.74 93 1016.8
20260906065850 12 133 4.8 35.4 0.00 0.74 0.74 94 1016.9
20260906065344 12 161 3.2 20.9 0.30 0.74 0.74 95 1016.8
20260906064840 12 116 16.1 32.2 1.32 0.74 0.74 95 1016.8
20260906064337 12 152 3.2 29.0 3.78 0.69 0.69 94 1016.5
20260906063831 13 79 14.5 45.1 3.07 0.51 0.51 92 1016.2
20260906063326 15 74 9.7 12.9 0.30 0.05 0.05 85 1017.9
20260906062822 15 120 0.0 4.8 0.00 0.00 0.00 83 1018.9
20260906062321 15 189 8.0 9.7 0.00 0.00 0.00 83 1018.0
20260906061816 15 172 0.0 4.8 0.00 0.00 0.00 81 1017.1
20260906061312 15 341 3.2 8.0 0.00 0.00 0.00 79 1017.2
20260906060807 15 319 0.0 4.8 0.00 0.00 0.00 78 1017.1
20260906060305 15 90 0.0 3.2 0.00 0.00 0.00 79 1017.5
20260906055800 15 16 0.0 3.2 0.00 0.00 0.00 79 1017.1
20260906055255 15 90 3.2 6.4 0.00 0.00 0.00 78 1017.2
20260906054750 15 73 3.2 8.0 0.00 0.00 0.00 77 1017.4
20260906054246 15 69 0.0 4.8 0.00 0.00 0.00 78 1017.2
20260906053743 15 45 3.2 4.8 0.00 0.00 0.00 78 1017.7
20260906053238 15 180 0.0 3.2 0.00 0.00 0.00 80 1017.7
20260906052733 15 162 0.0 3.2 0.00 0.00 0.00 79 1017.4
20260906052229 15 166 1.6 1.6 0.00 0.00 0.00 80 1017.6
20260906051726 15 96 0.0 4.8 0.00 0.00 0.00 79 1017.5
20260906051225 15 154 1.6 4.8 0.00 0.00 0.00 81 1017.2
20260906050721 15 29 0.0 1.6 0.00 0.00 0.00 81 1017.4
20260906050216 15 84 1.6 4.8 0.00 0.00 0.00 82 1017.4
20260906045714 15 168 1.6 3.2 0.00 0.00 0.00 81 1017.4
20260906045210 15 154 1.6 4.8 0.00 0.00 0.00 80 1017.2
20260906044706 15 8 0.0 3.2 0.00 0.00 0.00 78 1017.2
20260906044200 16 16 3.2 3.2 0.00 0.00 0.00 75 1017.4
20260906043656 16 111 1.6 4.8 0.00 0.00 0.00 74 1017.6
20260906043152 16 141 4.8 9.7 0.00 0.00 0.00 75 1017.4
20260906042651 16 119 3.2 8.0 0.00 0.00 0.00 74 1017.4
20260906042145 16 127 4.8 8.0 0.00 0.00 0.00 75 1017.6
20260906041641 16 119 3.2 6.4 0.00 0.00 0.00 76 1017.6
20260906041136 16 97 1.6 9.7 0.00 0.00 0.00 76 1017.9
20260906040631 15 72 4.8 8.0 0.00 0.00 0.00 76 1017.8
20260906040127 15 135 3.2 6.4 0.00 0.00 0.00 76 1017.2
20260906035622 15 139 3.2 6.4 0.00 0.00 0.00 76 1017.7
20260906035118 15 148 3.2 8.0 0.00 0.00 0.00 75 1017.6
20260906034618 16 120 1.6 3.2 0.00 0.00 0.00 75 1017.4
20260906034112 16 148 3.2 4.8 0.00 0.00 0.00 74 1017.6
20260906033608 16 106 0.0 1.6 0.00 0.00 0.00 75 1017.5
20260906033103 16 105 3.2 4.8 0.00 0.00 0.00 74 1017.6
20260906032559 16 120 0.0 0.0 0.00 0.00 0.00 71 1017.2
20260906032054 17 188 0.0 0.0 0.00 0.00 0.00 69 1017.5
20260906031549 17 120 0.0 3.2 0.00 0.00 0.00 68 1017.1
20260906031045 17 83 1.6 3.2 0.00 0.00 0.00 68 1017.1
20260906030544 17 288 3.2 4.8 0.00 0.00 0.00 66 1016.9
20260906030043 17 249 4.8 4.8 0.00 0.00 0.00 67 1017.1
20260906025538 17 0 1.6 4.8 0.00 0.00 0.00 67 1016.8
20260906025036 17 122 8.0 12.9 0.00 0.00 0.00 67 1016.8
20260906024532 18 90 3.2 17.7 0.00 0.00 0.00 66 1016.6
20260906024032 18 129 4.8 19.3 0.00 0.00 0.00 65 1016.7
20260906023528 18 203 0.0 9.7 0.00 0.00 0.00 64 1016.6
20260906023022 18 79 3.2 11.3 0.00 0.00 0.00 63 1016.4
20260906022518 18 29 0.0 4.8 0.00 0.00 0.00 63 1016.6
20260906022013 18 160 1.6 3.2 0.00 0.00 0.00 63 1016.6
20260906021508 18 90 3.2 8.0 0.00 0.00 0.00 63 1016.1
20260906021002 18 97 4.8 14.5 0.00 0.00 0.00 63 1016.4
20260906020456 18 105 3.2 8.0 0.00 0.00 0.00 63 1016.7
20260906015955 18 194 1.6 12.9 0.00 0.00 0.00 63 1016.4
20260906015455 18 90 0.0 8.0 0.00 0.00 0.00 64 1016.4
20260906014950 19 114 4.8 8.0 0.00 0.00 0.00 63 1016.4
20260906014449 19 103 0.0 11.3 0.00 0.00 0.00 63 1015.9
20260906013946 19 67 4.8 17.7 0.00 0.00 0.00 63 1015.8
20260906013441 20 54 0.0 4.8 0.00 0.00 0.00 62 1015.8
20260906012937 20 98 0.0 19.3 0.00 0.00 0.00 61 1015.7
20260906012431 20 102 4.8 11.3 0.00 0.00 0.00 59 1015.7
20260906011930 20 102 8.0 9.7 0.00 0.00 0.00 57 1015.7
20260906011426 21 168 0.0 1.6 0.00 0.00 0.00 55 1016.0
20260906010921 21 203 0.0 3.2 0.00 0.00 0.00 53 1015.8
20260906010417 21 115 0.0 6.4 0.00 0.00 0.00 51 1015.7
20260906005913 21 0 1.6 6.4 0.00 0.00 0.00 49 1015.7
20260906005412 21 90 0.0 6.4 0.00 0.00 0.00 50 1015.8
20260906004910 21 259 0.0 9.7 0.00 0.00 0.00 50 1015.6
20260906004405 21 261 6.4 8.0 0.00 0.00 0.00 49 1015.5
20260906003901 22 343 6.4 9.7 0.00 0.00 0.00 49 1015.7
20260906003356 22 270 3.2 9.7 0.00 0.00 0.00 49 1015.8
20260906002851 22 264 3.2 11.3 0.00 0.00 0.00 49 1015.8
20260906002350 22 263 6.4 11.3 0.00 0.00 0.00 49 1015.5
20260906001846 22 254 6.4 11.3 0.00 0.00 0.00 47 1015.5
20260906001342 22 279 8.0 14.5 0.00 0.00 0.00 47 1015.5
20260906000836 23 240 3.2 14.5 0.00 0.00 0.00 47 1015.5
20260906000333 23 251 4.8 14.5 0.00 0.00 0.00 46 1015.4
20260905235831 23 279 6.4 8.0 0.00 0.00 0.00 48 1015.1
20260905235326 23 231 8.0 12.9 0.00 0.00 0.00 46 1015.2
20260905234821 23 36 3.2 6.4 0.00 0.00 0.00 45 1015.4
20260905234316 23 266 4.8 11.3 0.00 0.00 0.00 46 1015.2
20260905233811 23 270 4.8 14.5 0.00 0.00 0.00 46 1015.4
20260905233306 24 345 1.6 6.4 0.00 0.00 0.00 45 1015.1
20260905232805 23 292 4.8 9.7 0.00 0.00 0.00 45 1015.4
20260905232305 23 340 4.8 4.8 0.00 0.00 0.00 45 1015.1
20260905231757 23 35 0.0 8.0 0.00 0.00 0.00 48 1015.4
20260905231252 23 6 1.6 9.7 0.00 0.00 0.00 48 1015.2
20260905230748 23 3 4.8 6.4 0.00 0.00 0.00 47 1015.4
20260905230246 23 305 4.8 6.4 0.00 0.00 0.00 47 1015.5
20260905225745 23 29 0.0 6.4 0.00 0.00 0.00 47 1015.6
20260905225241 23 0 1.6 8.0 0.00 0.00 0.00 47 1015.7
20260905224739 23 29 4.8 8.0 0.00 0.00 0.00 48 1016.0
20260905224236 23 331 1.6 6.4 0.00 0.00 0.00 48 1015.6
20260905223731 23 317 6.4 6.4 0.00 0.00 0.00 48 1015.7
20260905223228 22 253 8.0 12.9 0.00 0.00 0.00 49 1016.0
20260905222724 23 296 4.8 9.7 0.00 0.00 0.00 47 1015.9
20260905222223 23 114 0.0 6.4 0.00 0.00 0.00 47 1015.9
20260905221719 23 54 4.8 8.0 0.00 0.00 0.00 49 1016.1
20260905221215 22 6 1.6 6.4 0.00 0.00 0.00 49 1016.4
20260905220711 22 114 1.6 6.4 0.00 0.00 0.00 48 1016.2
20260905220207 22 282 4.8 8.0 0.00 0.00 0.00 50 1016.2
20260905215706 22 260 6.4 14.5 0.00 0.00 0.00 51 1016.4
20260905215202 21 301 3.2 8.0 0.00 0.00 0.00 50 1016.5
20260905214658 21 15 0.0 8.0 0.00 0.00 0.00 50 1016.5
20260905214153 22 118 8.0 8.0 0.00 0.00 0.00 51 1016.8
20260905213648 22 195 1.6 6.4 0.00 0.00 0.00 50 1016.8
20260905213144 22 109 0.0 4.8 0.00 0.00 0.00 51 1016.8
20260905212639 21 298 4.8 11.3 0.00 0.00 0.00 52 1016.8
20260905212138 21 327 4.8 8.0 0.00 0.00 0.00 51 1017.1
20260905211633 21 262 9.7 11.3 0.00 0.00 0.00 52 1016.9
20260905211128 22 11 0.0 3.2 0.00 0.00 0.00 51 1017.0
20260905210625 21 287 3.2 4.8 0.00 0.00 0.00 53 1017.2
20260905210119 21 282 4.8 6.4 0.00 0.00 0.00 53 1017.1
20260905205619 21 121 4.8 9.7 0.00 0.00 0.00 55 1017.2
20260905205118 21 307 3.2 8.0 0.00 0.00 0.00 53 1017.4
20260905204618 21 322 4.8 8.0 0.00 0.00 0.00 52 1017.6
20260905204114 20 7 6.4 6.4 0.00 0.00 0.00 55 1017.7
20260905203613 20 266 0.0 8.0 0.00 0.00 0.00 56 1017.6
20260905203109 20 236 3.2 8.0 0.00 0.00 0.00 56 1017.7
20260905202604 20 291 6.4 9.7 0.00 0.00 0.00 57 1017.7
20260905202059 20 315 3.2 6.4 0.00 0.00 0.00 56 1017.7
20260905201555 20 357 4.8 14.5 0.00 0.00 0.00 59 1017.7
20260905201054 20 105 4.8 6.4 0.00 0.00 0.00 60 1017.8
20260905200550 20 353 1.6 8.0 0.00 0.00 0.00 61 1017.9
20260905200050 18 257 3.2 6.4 0.00 0.00 0.00 60 1017.9
20260905195544 18 297 1.6 4.8 0.00 0.00 0.00 60 1018.2
20260905195040 18 304 3.2 3.2 0.00 0.00 0.00 61 1018.2
20260905194539 18 66 3.2 4.8 0.00 0.00 0.00 64 1018.1
20260905194038 18 90 1.6 4.8 0.00 0.00 0.00 62 1018.0
20260905193533 18 169 0.0 6.4 0.00 0.00 0.00 62 1017.8
20260905193029 18 279 0.0 3.2 0.00 0.00 0.00 64 1018.0
20260905192524 18 6 1.6 4.8 0.00 0.00 0.00 66 1018.0
20260905192020 18 255 0.0 4.8 0.00 0.00 0.00 65 1018.2
20260905191519 18 0 0.0 4.8 0.00 0.00 0.00 66 1018.1
20260905191018 17 12 3.2 4.8 0.00 0.00 0.00 68 1018.2
20260905190516 17 332 3.2 4.8 0.00 0.00 0.00 67 1018.2
20260905190010 17 263 4.8 6.4 0.00 0.00 0.00 66 1018.1
20260905185504 17 267 6.4 8.0 0.00 0.00 0.00 67 1018.1
20260905185003 17 291 1.6 4.8 0.00 0.00 0.00 70 1018.5
20260905184459 17 300 4.8 8.0 0.00 0.00 0.00 69 1018.7
20260905183957 16 241 3.2 8.0 0.00 0.00 0.00 70 1018.5